SCP
0 0 0 0 0 0 0 0 0 0 -0 0 0 0 0 0 0 0 0 0 0 0 0 0 0 0 0 0 -0 -0 0 0 0 0 0 0 0 0 0 0 0 0 0
0 0 0 0 0 0 0 0 0 0 0 0 0 0 0 0 0 0 0 0 0 0 0 0 0 0 0 0 0 -0 0 0 0 0 0 0 0 0 0 0 0 0 0
0 0 0 0 0 0 0 0 0 0 0 0 0 0 0 0 0 0 0 0 0 0 0 0 0 0 0 0 0 0 0 0 0 0 0 0 0 0 0 0 0 0 0
0 0 0 0 0 0 0 0 0 0 0 0 0 0 0 0 0 0 0 0 0 0 0 0 0 0 0 0 0 0 0 0 0 0 0 0 0 0 0 0 0 0 0
0 0 -0 0 0 0 0 0 0 0 0 0 0 0 0 0 0 0 0 0 0 0 0 0 0 0 0 0 0 0 0 0 0 0 0 0 0 0 0 0 0 0 0
0 0 0 0 0 0 0 0 0 0 0 0 0 0 -0 0 0 0 0 0 0 0 0 0 0 0 0 0 0 0 0 0 0 0 0 0 0 0 0 0 0 0 0
0 0 0 0 0 0 0 0 0 0 0 -0 0 0 0 0 -0 -0 -0 0 0 0 0 0 0 0 0 0 0 0 0 0 0 0 0 0 0 0 0 0 0 0 0
0 0 0 0 0 0 -0 0 -0 -0 -0 -0 -0 -0 -0 -0 -0 -0 -0 -0 0 0 0 0 0 0 0 0 0 0 0 0 0 0 0 0 0 0 0 0 0 0 0
0 0 0 0 -0 -0 0 0 0 0 0 0 0 0 0 0 0 -0 -0 -0 -0 0 -0 0 0 0 0 0 0 0 0 0 0 0 0 0 0 0 0 0 0 0 0
0 0 -0 -0 -0 -0 -0 -0 -0 -0 -0 -0 -0 0 0 0 -0 -0 -0 -0 -0 -0 -0 0 0 0 0 0 0 0 0 0 0 0 0 0 0 0 0 0 0 0 -0
0 -0 -0 -0 -0 -0 -0 -0 -0 -0 -0 -0 -0 0 0 0 -0 -0 -0 -0 -0 -0 -0 -0 -0 -0 -0 -0 -0 0 0 0 0 0 0 0 0 0 0 0 0 0 0
0 -0 -0 -0 -0 -0 -0 -0 -0 -0 -0 -0 0 0 -0 0 -0 -0 -0 -0 -0 -0 -0 -0 -0 0 0 0 -0 -0 0 0 0 0 0 0 0 0 0 0 -0 0 0
-0 -0 -0 -0 -0 -0 -0 -0 -0 -0 0 -0 -0 0 0 -0 0 0 -0 0 -0 -0 -0 -0 -0 -0 -0 -0 0 0 0 0 0 0 0 0 0 0 0 0 0 0 0
-0 -0 -0 -0 -0 -0 -0 -0 -0 -0 -0 -0 -0 -0 -0 0 -0 -0 -0 -0 -0 -0 -0 -0 -0 -0 -0 0 0 0 0 0 0 0 0 0 0 0 0 0 0 0 0
-0 -0 -0 -0 -0 0 -0 -0 -0 -0 -0 0 0 0 0 0 -0 -0 -0 -0 -0 -0 0 -0 -0 0 0 0 0 0 0 0 0 0 0 0 0 0 0 0 0 0 0
-0 0 0 0 0 0 0 0 -0 0 -0 -0 -0 0 -0 -0 -0 -0 -0 -0 -0 0 0 0 0 0 0 0 0 0 0 0 0 0 0 0 0 0 0 0 0 0 0
0 0 0 0 0 0 0 -0 -0 -0 -0 -0 0 0 0 0 0 0 0 0 0 0 0 0 0 0 0 0 0 0 0 0 0 0 0 0 0 0 0 0 0 0 0
0 0 0 0 0 0 -0 0 0 0 0 0 0 0 0 0 0 0 0 0 0 0 0 0 0 0 0 0 0 0 0 0 0 0 0 0 0 0 0 0 0 0 0
0 0 0 0 0 0 0 0 0 0 0 0 0 0 0 0 0 0 0 0 0 0 0 0 0 0 0 0 0 0 0 0 0 0 0 0 0 0 0 0 0 0 0
0 0 0 0 0 0 0 0 0 0 0 0 0 0 0 0 0 0 0 0 0 0 0 0 0 0 0 0 0 0 0 0 0 0 0 0 0 0 0 0 0 0 0
0 0 0 0 0 0 0 0 0 0 0 0 0 0 0 0 0 0 0 0 0 0 0 0 0 0 0 0 0 0 0 0 0 0 0 0 0 0 0 0 0 0 0
0 0 0 0 0 0 0 0 0 0 0 0 0 0 0 0 0 0 0 0 0 0 0 0 0 0 0 0 0 0 0 0 0 0 0 0 0 0 0 0 0 0 0
0 0 0 0 0 0 0 0 0 0 0 0 0 0 0 0 0 0 0 0 0 0 0 0 0 0 0 0 0 0 0 0 0 0 0 0 0 0 0 0 0 0 0
0 0 0 0 0 0 0 0 0 0 0 0 0 0 0 0 0 0 0 0 0 0 0 0 0 0 0 0 0 0 0 0 0 0 0 0 0 0 0 0 0 0 0
0 0 0 0 0 0 0 0 0 0 0 0 0 0 0 0 0 0 0 0 0 0 0 0 0 0 0 0 0 0 0 0 0 0 0 0 0 0 0 0 0 0 0
0 0 0 0 0 0 0 0 0 0 0 0 0 0 0 0 0 0 0 0 0 0 0 0 0 0 0 0 0 0 0 0 0 0 0 0 0 0 0 -0 -0 0 0
Wind_Speed_500mb
55 54 54 48 51 50 60 58 48 53 50 37 35 31 26 25 29 27 24 20 14 12 10 8 8 10 10 9 7 9 13 22 25 31 17 16 21 26 23 13 8 14 19
53 52 47 44 47 49 53 40 40 41 34 33 24 24 20 23 20 20 17 14 12 9 7 4 4 4 5 8 5 8 10 15 24 28 29 27 30 30 23 20 22 23 23
48 46 42 46 47 49 43 44 33 30 25 28 24 17 16 17 19 19 17 13 10 12 9 6 4 4 4 3 5 6 8 12 20 26 35 35 42 36 34 30 28 26 22
46 42 47 45 32 45 38 37 28 25 21 18 17 18 19 17 16 16 16 12 9 10 9 8 4 4 3 6 4 1 5 13 22 33 34 42 50 47 39 38 35 27 20
44 38 38 34 38 32 31 32 23 18 18 20 19 18 20 19 21 22 21 18 9 12 8 7 7 6 9 12 14 12 9 6 20 29 35 48 56 56 51 43 38 26 19
37 32 33 39 27 27 28 19 13 15 19 23 24 24 22 22 27 28 27 16 13 18 23 12 14 10 11 13 10 17 10 7 14 28 39 54 57 54 54 43 35 28 15
22 29 26 18 23 26 25 32 34 30 25 22 22 22 23 24 27 32 24 20 21 24 27 30 22 18 16 14 15 9 10 13 10 18 30 50 55 48 49 44 34 26 15
28 18 17 20 25 24 23 26 28 28 27 28 28 26 23 26 29 32 28 24 27 25 27 33 33 30 28 29 29 27 24 21 17 18 25 37 44 42 37 32 27 20 17
19 25 25 23 21 22 24 22 22 25 26 24 25 24 24 25 30 31 31 22 24 25 23 23 25 26 26 34 35 31 27 20 18 27 24 33 33 31 36 30 27 21 13
26 26 20 17 22 21 21 20 24 26 23 23 24 24 23 24 25 25 25 25 28 20 21 23 22 20 29 26 24 26 19 16 12 14 24 29 39 34 33 25 24 14 15
23 23 16 25 28 29 34 22 24 28 38 27 26 26 28 28 25 27 24 17 18 20 21 26 30 26 21 21 24 22 19 13 17 18 21 32 33 27 23 33 23 17 12
23 23 27 29 32 29 26 24 21 21 31 31 31 26 25 22 25 26 25 22 19 15 17 20 20 16 15 16 23 24 16 18 24 27 27 29 27 31 32 29 22 20 18
24 17 28 30 29 28 26 29 33 27 29 31 34 28 27 24 17 22 25 18 18 20 18 16 14 14 17 20 18 18 19 21 31 36 37 37 36 34 31 27 20 22 26
24 28 25 24 27 30 25 25 23 24 23 28 32 27 29 30 29 24 21 21 20 19 17 16 17 19 16 18 17 21 24 25 31 38 40 41 37 36 31 20 20 31 31
24 24 24 27 29 30 33 28 27 24 23 24 29 32 26 31 30 28 24 20 15 17 13 12 11 15 18 20 20 21 22 25 31 34 39 39 37 34 28 26 36 40 44
19 23 22 25 30 23 24 31 34 25 22 28 33 30 22 27 24 22 22 23 22 13 13 18 18 19 20 20 21 24 28 29 31 35 38 39 38 37 35 41 45 47 45
14 20 22 22 20 15 14 19 22 27 27 30 31 25 24 25 22 17 17 14 14 17 22 22 21 21 23 24 33 34 34 35 36 39 41 42 46 48 48 48 47 44 46
15 17 26 24 22 23 19 16 22 24 30 30 27 23 20 23 45 43 40 44 48 48 39 26 25 27 31 36 38 40 41 42 45 46 49 49 49 49 48 48 47 44 43
10 21 27 25 24 26 25 24 29 34 34 30 32 34 24 28 38 30 30 29 26 25 25 35 39 39 38 39 42 44 47 48 48 47 44 43 44 45 45 45 44 43 44
34 28 24 27 26 25 22 23 27 33 35 38 35 34 31 31 39 39 40 39 36 30 36 30 27 36 38 42 44 46 49 49 45 43 41 39 45 47 47 50 54 52 47
27 26 27 26 26 27 30 31 31 37 40 43 43 42 39 48 47 45 48 48 42 37 34 30 33 37 40 42 44 46 48 48 44 44 45 47 48 48 50 52 56 55 52
31 30 30 30 30 34 39 37 38 42 48 44 52 50 47 53 73 75 75 71 60 55 52 44 41 42 43 43 46 49 48 46 47 48 50 54 54 58 56 57 54 52 51
32 33 33 32 34 39 45 38 42 54 52 49 51 55 64 58 50 50 56 75 90 88 78 68 63 58 55 55 50 49 48 51 52 51 53 55 52 54 54 52 54 49 43
34 33 33 34 37 39 43 39 46 50 51 52 55 58 61 61 68 70 70 61 64 77 84 89 88 79 69 64 60 59 58 59 60 58 57 54 58 57 56 53 48 48 49
32 33 38 41 46 49 47 45 44 46 50 52 53 52 54 60 63 63 62 65 68 63 63 67 71 76 79 82 80 72 64 61 62 62 61 62 61 60 59 58 56 54 51
35 36 40 43 45 46 47 47 49 50 50 51 51 53 53 53 55 55 55 55 59 62 65 63 57 57 58 59 61 62 65 65 63 62 64 63 62 60 57 52 44 37 33
Wind_Direction_500mb
321 320 317 316 318 319 321 321 317 320 316 311 307 320 313 315 318 317 318 318 322 330 327 301 276 259 272 274 281 252 244 238 233 236 227 220 211 212 207 195 158 130 111
323 322 322 322 326 331 331 334 317 331 331 325 331 325 320 319 326 333 337 342 348 359 351 329 320 323 309 309 294 239 229 242 235 230 231 207 197 202 194 170 150 134 125
321 325 330 328 326 329 334 329 330 327 325 321 321 325 328 334 335 333 332 339 12 8 3 20 13 340 333 349 320 267 226 223 228 223 219 206 186 188 172 155 150 145 131
323 327 330 326 324 330 332 336 337 334 334 340 343 341 338 342 344 348 347 351 25 37 22 16 330 332 43 50 20 267 212 209 220 212 211 198 182 175 175 160 149 146 119
334 333 330 334 331 338 345 350 357 8 31 25 21 46 40 36 36 28 24 24 36 46 40 20 63 86 74 64 64 63 70 181 197 201 197 187 173 171 162 163 154 142 126
337 334 329 333 350 1 359 355 1 352 359 60 43 38 42 44 29 25 19 19 71 68 55 66 114 74 69 71 78 50 59 131 178 190 195 184 168 176 170 164 152 148 142
337 336 347 19 25 34 26 51 48 51 48 40 38 40 47 52 38 19 31 61 67 75 52 60 78 76 62 60 66 98 90 104 124 182 186 182 165 175 169 162 161 167 146
348 12 48 59 43 34 37 35 38 40 48 53 50 50 56 50 42 50 48 69 65 71 58 56 63 67 68 67 69 77 79 97 111 133 161 171 174 163 163 164 166 156 132
55 67 55 51 43 38 40 44 39 47 57 57 55 51 57 50 50 48 43 65 71 71 75 65 63 57 56 57 50 47 47 66 86 96 120 158 149 154 155 164 162 154 111
71 59 41 29 39 43 45 51 61 50 49 50 49 49 49 47 45 40 56 62 59 68 57 38 46 64 67 55 44 37 37 72 100 110 106 138 134 143 156 166 155 137 114
50 46 49 65 57 45 56 64 61 46 54 54 47 46 47 31 37 47 42 73 65 64 64 64 57 63 53 38 26 27 28 64 118 141 125 121 135 134 130 135 125 120 115
56 59 66 60 61 47 51 43 46 51 62 47 35 36 42 42 35 36 36 42 55 58 68 65 61 36 36 35 4 7 63 88 111 133 150 136 128 136 127 131 114 113 132
66 56 67 66 58 54 55 50 51 72 53 42 38 42 44 41 48 40 31 49 39 67 48 45 45 37 20 22 44 66 84 104 124 128 139 138 132 127 124 122 113 132 143
73 80 57 61 50 42 47 53 54 48 39 40 38 42 40 43 44 33 41 38 40 24 26 33 28 29 49 75 78 82 85 103 122 132 128 131 130 128 121 122 132 131 125
71 57 51 49 46 37 46 54 50 47 46 39 34 43 46 38 37 35 27 26 29 15 17 37 39 73 76 82 80 76 79 99 112 122 136 133 134 128 135 137 132 129 117
64 48 49 39 25 29 48 55 57 56 42 38 33 42 48 44 31 30 29 36 37 39 60 68 76 84 82 85 82 83 92 99 109 119 127 137 139 139 135 131 129 119 116
51 36 31 13 25 43 49 53 62 46 37 32 39 49 35 27 1 358 3 18 35 46 77 82 83 84 88 85 97 95 98 101 105 114 122 126 127 128 129 127 121 117 110
24 13 12 32 48 69 56 59 43 33 33 46 52 46 34 48 57 68 75 74 71 69 69 74 75 90 99 102 100 99 102 106 107 111 114 117 122 123 124 123 119 113 108
23 44 54 52 57 61 50 57 49 59 49 72 55 58 67 71 59 57 58 70 66 55 50 63 77 89 101 104 102 102 103 104 107 109 112 115 119 124 121 119 119 117 111
67 57 55 60 63 65 57 65 59 53 61 65 82 65 70 60 48 62 66 75 77 82 90 89 91 87 108 106 105 106 106 107 106 108 109 112 118 117 120 121 123 120 119
59 57 56 64 66 68 70 74 67 69 67 73 77 73 63 67 74 80 68 77 80 86 96 101 100 101 102 106 109 109 108 109 106 103 103 107 109 109 116 121 120 118 115
65 67 65 66 73 82 87 81 77 70 81 82 76 78 66 69 77 71 64 66 77 82 90 98 102 104 105 106 107 107 106 107 109 106 105 110 106 108 112 122 122 117 112
68 68 68 70 76 88 96 89 81 83 79 83 80 71 73 72 71 64 65 72 73 74 79 84 88 94 101 103 103 103 100 104 111 111 113 114 111 116 117 117 117 112 110
66 67 74 81 84 91 94 87 80 77 81 81 75 72 74 77 74 71 75 82 82 79 77 79 80 82 85 88 88 91 95 98 103 105 107 107 108 110 109 109 106 104 105
71 74 80 92 96 101 101 96 91 89 85 81 79 77 77 79 81 79 78 78 81 84 84 82 82 81 79 79 81 82 88 92 97 99 100 101 102 104 104 104 106 104 103
75 77 84 94 101 101 99 96 95 94 90 85 81 80 81 81 78 76 77 83 85 85 84 85 86 85 85 83 82 84 86 88 91 95 99 99 99 99 99 97 97 97 98
Wind_Speed_850mb
55 54 54 48 51 50 60 58 48 53 50 37 35 31 26 25 29 27 24 20 14 12 10 8 8 10 10 9 7 9 13 22 25 31 17 16 21 26 23 13 8 14 19
53 52 47 44 47 49 53 40 40 41 34 33 24 24 20 23 20 20 17 14 12 9 7 4 4 4 5 8 5 8 10 15 24 28 29 27 30 30 23 20 22 23 23
48 46 42 46 47 49 43 44 33 30 25 28 24 17 16 17 19 19 17 13 10 12 9 6 4 4 4 3 5 6 8 12 20 26 35 35 42 36 34 30 28 26 22
46 42 47 45 32 45 38 37 28 25 21 18 17 18 19 17 16 16 16 12 9 10 9 8 4 4 3 6 4 1 5 13 22 33 34 42 50 47 39 38 35 27 20
44 38 38 34 38 32 31 32 23 18 18 20 19 18 20 19 21 22 21 18 9 12 8 7 7 6 9 12 14 12 9 6 20 29 35 48 56 56 51 43 38 26 19
37 32 33 39 27 27 28 19 13 15 19 23 24 24 22 22 27 28 27 16 13 18 23 12 14 10 11 13 10 17 10 7 14 28 39 54 57 54 54 43 35 28 15
22 29 26 18 23 26 25 32 34 30 25 22 22 22 23 24 27 32 24 20 21 24 27 30 22 18 16 14 15 9 10 13 10 18 30 50 55 48 49 44 34 26 15
28 18 17 20 25 24 23 26 28 28 27 28 28 26 23 26 29 32 28 24 27 25 27 33 33 30 28 29 29 27 24 21 17 18 25 37 44 42 37 32 27 20 17
19 25 25 23 21 22 24 22 22 25 26 24 25 24 24 25 30 31 31 22 24 25 23 23 25 26 26 34 35 31 27 20 18 27 24 33 33 31 36 30 27 21 13
26 26 20 17 22 21 21 20 24 26 23 23 24 24 23 24 25 25 25 25 28 20 21 23 22 20 29 26 24 26 19 16 12 14 24 29 39 34 33 25 24 14 15
23 23 16 25 28 29 34 22 24 28 38 27 26 26 28 28 25 27 24 17 18 20 21 26 30 26 21 21 24 22 19 13 17 18 21 32 33 27 23 33 23 17 12
23 23 27 29 32 29 26 24 21 21 31 31 31 26 25 22 25 26 25 22 19 15 17 20 20 16 15 16 23 24 16 18 24 27 27 29 27 31 32 29 22 20 18
24 17 28 30 29 28 26 29 33 27 29 31 34 28 27 24 17 22 25 18 18 20 18 16 14 14 17 20 18 18 19 21 31 36 37 37 36 34 31 27 20 22 26
24 28 25 24 27 30 25 25 23 24 23 28 32 27 29 30 29 24 21 21 20 19 17 16 17 19 16 18 17 21 24 25 31 38 40 41 37 36 31 20 20 31 31
24 24 24 27 29 30 33 28 27 24 23 24 29 32 26 31 30 28 24 20 15 17 13 12 11 15 18 20 20 21 22 25 31 34 39 39 37 34 28 26 36 40 44
19 23 22 25 30 23 24 31 34 25 22 28 33 30 22 27 24 22 22 23 22 13 13 18 18 19 20 20 21 24 28 29 31 35 38 39 38 37 35 41 45 47 45
14 20 22 22 20 15 14 19 22 27 27 30 31 25 24 25 22 17 17 14 14 17 22 22 21 21 23 24 33 34 34 35 36 39 41 42 46 48 48 48 47 44 46
15 17 26 24 22 23 19 16 22 24 30 30 27 23 20 23 45 43 40 44 48 48 39 26 25 27 31 36 38 40 41 42 45 46 49 49 49 49 48 48 47 44 43
10 21 27 25 24 26 25 24 29 34 34 30 32 34 24 28 38 30 30 29 26 25 25 35 39 39 38 39 42 44 47 48 48 47 44 43 44 45 45 45 44 43 44
34 28 24 27 26 25 22 23 27 33 35 38 35 34 31 31 39 39 40 39 36 30 36 30 27 36 38 42 44 46 49 49 45 43 41 39 45 47 47 50 54 52 47
27 26 27 26 26 27 30 31 31 37 40 43 43 42 39 48 47 45 48 48 42 37 34 30 33 37 40 42 44 46 48 48 44 44 45 47 48 48 50 52 56 55 52
31 30 30 30 30 34 39 37 38 42 48 44 52 50 47 53 73 75 75 71 60 55 52 44 41 42 43 43 46 49 48 46 47 48 50 54 54 58 56 57 54 52 51
32 33 33 32 34 39 45 38 42 54 52 49 51 55 64 58 50 50 56 75 90 88 78 68 63 58 55 55 50 49 48 51 52 51 53 55 52 54 54 52 54 49 43
34 33 33 34 37 39 43 39 46 50 51 52 55 58 61 61 68 70 70 61 64 77 84 89 88 79 69 64 60 59 58 59 60 58 57 54 58 57 56 53 48 48 49
32 33 38 41 46 49 47 45 44 46 50 52 53 52 54 60 63 63 62 65 68 63 63 67 71 76 79 82 80 72 64 61 62 62 61 62 61 60 59 58 56 54 51
35 36 40 43 45 46 47 47 49 50 50 51 51 53 53 53 55 55 55 55 59 62 65 63 57 57 58 59 61 62 65 65 63 62 64 63 62 60 57 52 44 37 33
Wind_Direction_850mb
321 320 317 316 318 319 321 321 317 320 316 311 307 320 313 315 318 317 318 318 322 330 327 301 276 259 272 274 281 252 244 238 233 236 227 220 211 212 207 195 158 130 111
323 322 322 322 326 331 331 334 317 331 331 325 331 325 320 319 326 333 337 342 348 359 351 329 320 323 309 309 294 239 229 242 235 230 231 207 197 202 194 170 150 134 125
321 325 330 328 326 329 334 329 330 327 325 321 321 325 328 334 335 333 332 339 12 8 3 20 13 340 333 349 320 267 226 223 228 223 219 206 186 188 172 155 150 145 131
323 327 330 326 324 330 332 336 337 334 334 340 343 341 338 342 344 348 347 351 25 37 22 16 330 332 43 50 20 267 212 209 220 212 211 198 182 175 175 160 149 146 119
334 333 330 334 331 338 345 350 357 8 31 25 21 46 40 36 36 28 24 24 36 46 40 20 63 86 74 64 64 63 70 181 197 201 197 187 173 171 162 163 154 142 126
337 334 329 333 350 1 359 355 1 352 359 60 43 38 42 44 29 25 19 19 71 68 55 66 114 74 69 71 78 50 59 131 178 190 195 184 168 176 170 164 152 148 142
337 336 347 19 25 34 26 51 48 51 48 40 38 40 47 52 38 19 31 61 67 75 52 60 78 76 62 60 66 98 90 104 124 182 186 182 165 175 169 162 161 167 146
348 12 48 59 43 34 37 35 38 40 48 53 50 50 56 50 42 50 48 69 65 71 58 56 63 67 68 67 69 77 79 97 111 133 161 171 174 163 163 164 166 156 132
55 67 55 51 43 38 40 44 39 47 57 57 55 51 57 50 50 48 43 65 71 71 75 65 63 57 56 57 50 47 47 66 86 96 120 158 149 154 155 164 162 154 111
71 59 41 29 39 43 45 51 61 50 49 50 49 49 49 47 45 40 56 62 59 68 57 38 46 64 67 55 44 37 37 72 100 110 106 138 134 143 156 166 155 137 114
50 46 49 65 57 45 56 64 61 46 54 54 47 46 47 31 37 47 42 73 65 64 64 64 57 63 53 38 26 27 28 64 118 141 125 121 135 134 130 135 125 120 115
56 59 66 60 61 47 51 43 46 51 62 47 35 36 42 42 35 36 36 42 55 58 68 65 61 36 36 35 4 7 63 88 111 133 150 136 128 136 127 131 114 113 132
66 56 67 66 58 54 55 50 51 72 53 42 38 42 44 41 48 40 31 49 39 67 48 45 45 37 20 22 44 66 84 104 124 128 139 138 132 127 124 122 113 132 143
73 80 57 61 50 42 47 53 54 48 39 40 38 42 40 43 44 33 41 38 40 24 26 33 28 29 49 75 78 82 85 103 122 132 128 131 130 128 121 122 132 131 125
71 57 51 49 46 37 46 54 50 47 46 39 34 43 46 38 37 35 27 26 29 15 17 37 39 73 76 82 80 76 79 99 112 122 136 133 134 128 135 137 132 129 117
64 48 49 39 25 29 48 55 57 56 42 38 33 42 48 44 31 30 29 36 37 39 60 68 76 84 82 85 82 83 92 99 109 119 127 137 139 139 135 131 129 119 116
51 36 31 13 25 43 49 53 62 46 37 32 39 49 35 27 1 358 3 18 35 46 77 82 83 84 88 85 97 95 98 101 105 114 122 126 127 128 129 127 121 117 110
24 13 12 32 48 69 56 59 43 33 33 46 52 46 34 48 57 68 75 74 71 69 69 74 75 90 99 102 100 99 102 106 107 111 114 117 122 123 124 123 119 113 108
23 44 54 52 57 61 50 57 49 59 49 72 55 58 67 71 59 57 58 70 66 55 50 63 77 89 101 104 102 102 103 104 107 109 112 115 119 124 121 119 119 117 111
67 57 55 60 63 65 57 65 59 53 61 65 82 65 70 60 48 62 66 75 77 82 90 89 91 87 108 106 105 106 106 107 106 108 109 112 118 117 120 121 123 120 119
59 57 56 64 66 68 70 74 67 69 67 73 77 73 63 67 74 80 68 77 80 86 96 101 100 101 102 106 109 109 108 109 106 103 103 107 109 109 116 121 120 118 115
65 67 65 66 73 82 87 81 77 70 81 82 76 78 66 69 77 71 64 66 77 82 90 98 102 104 105 106 107 107 106 107 109 106 105 110 106 108 112 122 122 117 112
68 68 68 70 76 88 96 89 81 83 79 83 80 71 73 72 71 64 65 72 73 74 79 84 88 94 101 103 103 103 100 104 111 111 113 114 111 116 117 117 117 112 110
66 67 74 81 84 91 94 87 80 77 81 81 75 72 74 77 74 71 75 82 82 79 77 79 80 82 85 88 88 91 95 98 103 105 107 107 108 110 109 109 106 104 105
71 74 80 92 96 101 101 96 91 89 85 81 79 77 77 79 81 79 78 78 81 84 84 82 82 81 79 79 81 82 88 92 97 99 100 101 102 104 104 104 106 104 103
75 77 84 94 101 101 99 96 95 94 90 85 81 80 81 81 78 76 77 83 85 85 84 85 86 85 85 83 82 84 86 88 91 95 99 99 99 99 99 97 97 97 98